QFA733 YSSY-YPAD

Flight info

Callsign QFA733
Flight time N/A
Altitude 36000
Route GROOK1/16R KADOM H44 MAXEM Q60 KAKLU
Aircraft B737/M-SDE2E3FGHIRWXY/LB1

Departure

Time N/A
Airport Sydney Kingsford Smith International Airport (YSSY)

Arrival

Time 2026-04-29 08:42
Airport Adelaide International Airport (YPAD)
Time Latitude Longitude Altitude Speed Heading
2026-04-29 07:52 -34.27655 145.84305 36364 ft 434 kts 260°
2026-04-29 07:52 -34.28542 145.77033 36357 ft 434 kts 260°
2026-04-29 07:53 -34.29417 145.69854 36363 ft 434 kts 260°
2026-04-29 07:53 -34.30296 145.62621 36368 ft 434 kts 260°
2026-04-29 07:54 -34.31171 145.55377 36369 ft 435 kts 260°
2026-04-29 07:54 -34.32041 145.48140 36362 ft 435 kts 261°
2026-04-29 07:55 -34.32903 145.40931 36371 ft 435 kts 261°
2026-04-29 07:55 -34.33764 145.33697 36369 ft 436 kts 261°
2026-04-29 07:56 -34.34623 145.26432 36365 ft 437 kts 261°
2026-04-29 07:56 -34.35480 145.19157 36373 ft 437 kts 261°
2026-04-29 07:57 -34.36333 145.11875 36380 ft 437 kts 261°
2026-04-29 07:57 -34.37181 145.04597 36371 ft 437 kts 261°
2026-04-29 07:58 -34.38024 144.97317 36373 ft 436 kts 261°
2026-04-29 07:58 -34.38862 144.90047 36371 ft 435 kts 261°
2026-04-29 07:59 -34.39690 144.82827 36373 ft 434 kts 261°
2026-04-29 07:59 -34.40517 144.75574 36374 ft 434 kts 261°
2026-04-29 08:00 -34.41337 144.68345 36379 ft 433 kts 261°
2026-04-29 08:00 -34.42152 144.61128 36380 ft 432 kts 261°
2026-04-29 08:01 -34.42961 144.53917 36370 ft 432 kts 261°
2026-04-29 08:01 -34.43760 144.46756 36373 ft 431 kts 261°
2026-04-29 08:02 -34.44558 144.39563 36366 ft 430 kts 262°
2026-04-29 08:02 -34.45352 144.32376 36369 ft 430 kts 262°
2026-04-29 08:03 -34.46140 144.25194 36371 ft 429 kts 262°
2026-04-29 08:03 -34.46923 144.18025 36371 ft 429 kts 262°
2026-04-29 08:04 -34.47697 144.10903 36370 ft 428 kts 262°
2026-04-29 08:04 -34.48470 144.03741 36366 ft 428 kts 262°
2026-04-29 08:05 -34.49238 143.96593 36366 ft 428 kts 262°
2026-04-29 08:05 -34.50001 143.89442 36366 ft 427 kts 262°
2026-04-29 08:06 -34.50761 143.82290 36365 ft 427 kts 262°
2026-04-29 08:06 -34.51511 143.75179 36370 ft 427 kts 262°
2026-04-29 08:07 -34.52261 143.68035 36370 ft 427 kts 262°
2026-04-29 08:07 -34.53008 143.60880 36359 ft 426 kts 262°
2026-04-29 08:08 -34.53749 143.53745 36363 ft 426 kts 262°
2026-04-29 08:08 -34.54481 143.46651 36357 ft 425 kts 262°
2026-04-29 08:09 -34.55210 143.39537 36353 ft 425 kts 262°
2026-04-29 08:09 -34.55935 143.32428 36356 ft 424 kts 262°
2026-04-29 08:10 -34.56655 143.25330 36356 ft 424 kts 262°
2026-04-29 08:10 -34.57370 143.18235 36355 ft 423 kts 263°
2026-04-29 08:11 -34.58080 143.11149 36352 ft 423 kts 263°
2026-04-29 08:11 -34.58786 143.04059 36350 ft 423 kts 263°
2026-04-29 08:12 -34.59912 142.92669 36351 ft 422 kts 263°
2026-04-29 08:12 -34.61296 142.78507 36363 ft 422 kts 263°
2026-04-29 08:13 -34.62665 142.64336 36341 ft 422 kts 263°
2026-04-29 08:13 -34.63904 142.50156 36343 ft 422 kts 266°
2026-04-29 08:14 -34.64635 142.35952 36346 ft 421 kts 266°
2026-04-29 08:14 -34.65407 142.21719 36341 ft 422 kts 266°
2026-04-29 08:15 -34.66183 142.07484 36345 ft 422 kts 266°
2026-04-29 08:15 -34.66935 141.93351 36345 ft 422 kts 266°
2026-04-29 08:16 -34.67676 141.79122 36350 ft 422 kts 266°
2026-04-29 08:16 -34.68400 141.64882 36341 ft 422 kts 266°
2026-04-29 08:17 -34.69108 141.50641 36338 ft 422 kts 266°
2026-04-29 08:17 -34.69799 141.36396 36339 ft 422 kts 267°
2026-04-29 08:18 -34.70475 141.22129 36331 ft 422 kts 267°
2026-04-29 08:18 -34.71133 141.07869 36325 ft 422 kts 267°
2026-04-29 08:19 -34.71776 140.93583 36329 ft 422 kts 267°
2026-04-29 08:19 -34.72397 140.79426 36330 ft 422 kts 267°
2026-04-29 08:20 -34.72747 140.71274 36327 ft 422 kts 267°
2026-04-29 08:20 -34.73049 140.64130 36325 ft 422 kts 268°
2026-04-29 08:21 -34.73200 140.60545 35917 ft 429 kts 268°
2026-04-29 08:21 -34.73351 140.56906 35279 ft 430 kts 267°
2026-04-29 08:21 -34.73500 140.53315 34527 ft 431 kts 267°
2026-04-29 08:21 -34.73651 140.49658 33646 ft 433 kts 267°
2026-04-29 08:22 -34.73804 140.45976 32648 ft 437 kts 268°
2026-04-29 08:22 -34.73957 140.42271 31759 ft 440 kts 268°
2026-04-29 08:22 -34.74058 140.39821 31329 ft 437 kts 268°
2026-04-29 08:22 -34.74260 140.34899 30486 ft 432 kts 268°
2026-04-29 08:23 -34.74357 140.32494 30038 ft 429 kts 268°
2026-04-29 08:23 -34.74503 140.28884 29359 ft 424 kts 268°
2026-04-29 08:23 -34.74645 140.25325 28746 ft 418 kts 268°
2026-04-29 08:23 -34.74784 140.21820 28126 ft 413 kts 269°
2026-04-29 08:24 -34.74921 140.18344 27519 ft 409 kts 268°
2026-04-29 08:24 -34.75055 140.14908 26926 ft 405 kts 269°
2026-04-29 08:24 -34.75187 140.11503 26344 ft 401 kts 269°
2026-04-29 08:24 -34.75318 140.08116 25763 ft 398 kts 269°
2026-04-29 08:25 -34.75444 140.04803 25175 ft 396 kts 269°
2026-04-29 08:25 -34.75571 140.01451 24573 ft 395 kts 269°
2026-04-29 08:25 -34.75697 139.98116 23983 ft 394 kts 269°
2026-04-29 08:25 -34.75820 139.94799 23298 ft 392 kts 269°
2026-04-29 08:26 -34.75943 139.91493 22683 ft 389 kts 269°
2026-04-29 08:26 -34.76064 139.88213 22081 ft 386 kts 269°
2026-04-29 08:26 -34.76183 139.84962 21496 ft 382 kts 269°
2026-04-29 08:26 -34.76300 139.81747 20921 ft 379 kts 269°
2026-04-29 08:27 -34.76414 139.78598 20357 ft 376 kts 269°
2026-04-29 08:27 -34.76527 139.75426 19789 ft 374 kts 269°
2026-04-29 08:27 -34.76639 139.72273 19204 ft 372 kts 269°
2026-04-29 08:27 -34.76750 139.69130 18629 ft 371 kts 269°
2026-04-29 08:28 -34.76859 139.66011 17988 ft 369 kts 269°
2026-04-29 08:28 -34.76967 139.62901 17394 ft 365 kts 269°
2026-04-29 08:28 -34.77074 139.59827 16819 ft 362 kts 269°
2026-04-29 08:28 -34.77178 139.56781 16257 ft 359 kts 269°
2026-04-29 08:29 -34.77281 139.53762 15702 ft 356 kts 269°
2026-04-29 08:29 -34.77382 139.50766 15151 ft 353 kts 269°
2026-04-29 08:29 -34.77481 139.47827 14587 ft 351 kts 269°
2026-04-29 08:29 -34.77580 139.44858 14008 ft 350 kts 269°
2026-04-29 08:30 -34.77677 139.41908 13394 ft 347 kts 269°
2026-04-29 08:30 -34.77832 139.36003 11924 ft 349 kts 270°
2026-04-29 08:30 -34.77894 139.33066 11347 ft 345 kts 271°
2026-04-29 08:31 -34.77955 139.30164 10836 ft 340 kts 271°
2026-04-29 08:31 -34.78016 139.27361 10706 ft 323 kts 271°
2026-04-29 08:31 -34.78075 139.24681 10552 ft 310 kts 271°
2026-04-29 08:31 -34.78130 139.22150 10416 ft 297 kts 271°
2026-04-29 08:32 -34.78183 139.19694 10281 ft 284 kts 271°
2026-04-29 08:32 -34.78232 139.17340 9981 ft 279 kts 271°
2026-04-29 08:32 -34.78280 139.14981 9575 ft 277 kts 272°
2026-04-29 08:32 -34.78328 139.12646 9197 ft 275 kts 272°
2026-04-29 08:33 -34.78376 139.10324 8821 ft 273 kts 272°
2026-04-29 08:33 -34.78423 139.08022 8425 ft 271 kts 272°
2026-04-29 08:33 -34.78470 139.05743 8084 ft 268 kts 272°
2026-04-29 08:33 -34.78518 139.03471 7580 ft 272 kts 272°
2026-04-29 08:34 -34.78566 139.01193 7176 ft 272 kts 272°
2026-04-29 08:34 -34.78614 138.98893 6801 ft 271 kts 272°
2026-04-29 08:34 -34.78663 138.96606 6431 ft 270 kts 272°
2026-04-29 08:34 -34.78710 138.94333 6063 ft 268 kts 272°
2026-04-29 08:35 -34.78757 138.92069 5701 ft 266 kts 272°
2026-04-29 08:35 -34.78803 138.89842 5493 ft 259 kts 272°
2026-04-29 08:35 -34.78847 138.87684 5273 ft 253 kts 272°
2026-04-29 08:35 -34.78889 138.85548 4964 ft 252 kts 272°
2026-04-29 08:36 -34.78930 138.83427 4656 ft 250 kts 273°
2026-04-29 08:36 -34.78971 138.81312 4332 ft 249 kts 272°
2026-04-29 08:36 -34.79011 138.79207 4062 ft 246 kts 272°
2026-04-29 08:36 -34.79055 138.77195 3962 ft 237 kts 270°
2026-04-29 08:37 -34.79576 138.75310 3830 ft 237 kts 238°
2026-04-29 08:37 -34.80585 138.73777 3739 ft 229 kts 231°
2026-04-29 08:37 -34.81619 138.72344 3633 ft 222 kts 231°
2026-04-29 08:37 -34.82640 138.70889 3412 ft 231 kts 232°
2026-04-29 08:38 -34.83679 138.69386 3126 ft 231 kts 232°
2026-04-29 08:38 -34.84691 138.67918 2845 ft 221 kts 232°
2026-04-29 08:38 -34.85655 138.66516 2547 ft 210 kts 232°
2026-04-29 08:38 -34.86570 138.65187 2263 ft 200 kts 231°
2026-04-29 08:39 -34.87423 138.63949 2028 ft 186 kts 232°
2026-04-29 08:39 -34.88227 138.62781 1777 ft 174 kts 232°
2026-04-29 08:39 -34.88969 138.61705 1563 ft 159 kts 231°
2026-04-29 08:39 -34.89655 138.60709 1362 ft 149 kts 232°
2026-04-29 08:40 -34.90310 138.59757 1174 ft 145 kts 231°
2026-04-29 08:40 -34.90965 138.58807 989 ft 146 kts 231°
2026-04-29 08:40 -34.91609 138.57873 799 ft 141 kts 230°
2026-04-29 08:40 -34.92232 138.56969 636 ft 139 kts 230°
2026-04-29 08:41 -34.92854 138.56067 437 ft 137 kts 230°
2026-04-29 08:41 -34.93452 138.55200 264 ft 134 kts 230°
2026-04-29 08:41 -34.94049 138.54340 54 ft 133 kts 230°
2026-04-29 08:41 -34.94597 138.53551 21 ft 102 kts 230°
2026-04-29 08:42 -34.94916 138.53087 22 ft 20 kts 230°
2026-04-29 08:42 -34.94918 138.52992 21 ft 11 kts 332°
2026-04-29 08:42 -34.94843 138.53005 22 ft 11 kts 17°
2026-04-29 08:42 -34.94773 138.53034 21 ft 11 kts 21°
2026-04-29 08:43 -34.94705 138.53066 23 ft 10 kts 21°
2026-04-29 08:43 -34.94641 138.53098 21 ft 10 kts 23°
2026-04-29 08:43 -34.94577 138.53128 24 ft 10 kts 21°
2026-04-29 08:43 -34.94517 138.53161 22 ft 9 kts 41°
2026-04-29 08:44 -34.94513 138.53235 22 ft 9 kts 102°
2026-04-29 08:44 -34.94514 138.53312 22 ft 9 kts 78°
2026-04-29 08:44 -34.94483 138.53376 22 ft 9 kts 51°
2026-04-29 08:44 -34.94444 138.53432 24 ft 8 kts 50°
2026-04-29 08:45 -34.94407 138.53486 21 ft 8 kts 50°
2026-04-29 08:45 -34.94371 138.53539 23 ft 8 kts 50°
2026-04-29 08:45 -34.94336 138.53590 22 ft 8 kts 50°
2026-04-29 08:45 -34.94301 138.53639 24 ft 7 kts 44°
2026-04-29 08:46 -34.94254 138.53655 24 ft 7 kts 350°
2026-04-29 08:46 -34.94207 138.53640 25 ft 7 kts
2026-04-29 08:46 -34.94166 138.53668 26 ft 7 kts 44°
2026-04-29 08:46 -34.94133 138.53709 25 ft 7 kts 32°
2026-04-29 08:47 -34.94090 138.53695 29 ft 7 kts 322°
2026-04-29 08:47 -34.94057 138.53661 30 ft 5 kts 320°
2026-04-29 08:47 -34.94055 138.53660 29 ft 0 kts 320°